Погода в Иртышске

Казахстан     53°19′58″N   75°27′31″E
темп.,
°C
ветер,
м/с
пор.,
м/с
влажн.,
%
обл.,
%
осадки,
мм/ч
давл.,
гПа
погр.,
м
25 февраля, чт
чт2500:00−24ююз5118765 0.1 1015250
03:00−25ююз5128831 0.0 1014220
06:00−23ююз6129355 0.0 1015401
09:00−23юз71289100 0.0 1016615
12:00−21юз71087100 0.1 1016950
15:00−20юз6884100 0.1 10171138
18:00−22зюз4992100 0.1 1020367
21:00−28зюз479691 0.0 1022113
26 февраля, пт
пт2600:00−24з5119695 0.1 1024356
03:00−27з6129687 0.0 1027273
06:00−31зюз5109681 0.0 1031186
09:00−31зюз4109573 0.0 1034211
12:00−26зюз589476 0.0 1035395
15:00−24зюз5892100 0.0 1036507
18:00−27юз469699 0.0 103693
21:00−29юз44962 0.0 103748
27 февраля, сб
сб2700:00−30юз44942 0.0 103752
03:00−31юз44940 0.0 103748
06:00−32юз44940 0.0 103748
09:00−32ююз34940 0.0 103757
12:00−27ююз46910 0.0 1037244
15:00−24ю46900 0.0 1036264
18:00−26ююв44930 0.0 103563
21:00−23ююв599486 0.0 1031156
28 февраля, вс
вс2800:00−22ююв599276 0.0 1029134
03:00−19ююв6109073 0.0 1026228
06:00−15ююв7138787 0.0 1022344
09:00−13ююв91494100 0.6 1019595
12:00−7ю91493100 1.9 1015835
15:00−4ююз81191100 0.3 1012864
18:00−3ююз61194100 0.4 1010531
21:00−2ююз61296100 0.4 1009487
1 марта, пн
пн100:00−2ююз61493100 0.5 1009456
03:00+1юз71298100 0.1 1007627
06:00+1юз71399100 1.4 1007574
09:00−1зюз8148989 0.5 1007501
12:00−1зюз8138791 0.6 1008789
15:000зюз8119198 0.2 1008937
18:00−1юз6119599 0.3 1009559
21:00−4зюз71394100 0.4 1011571